Location: *
(32.8667°N, 13.1833°E)
Time: 08:36:59
(UTC+00:00)

Resurs 01 Rocket - Pass Details

Date: 18 July 2019
Orbit: 634 x 645 km, 98.0° (Epoch: 18 August)

Event Time Altitude Azimuth Distance (km) Brightness Sun altitude
Exits shadow 19:04:38 12° 138° (SE) 1,894 3.4 -9.9°
Maximum altitude 19:08:20 37° 73° (ENE) 1,003 2.3 -10.5°
Drops below altitude 10° 19:12:24 10° 6° (N) 2,037 4.6 -11.2°
Sets 19:14:44 0° 358° (N) 2,948 5.6 -11.6°
